TimeCEST,TemperatureF,Dew PointF,Humidity,Sea Level PressureIn,VisibilityMPH,Wind Direction,Wind SpeedMPH,Gust SpeedMPH,PrecipitationIn,Events,Conditions,WindDirDegrees,DateUTC
12:55 AM,71.6,71.6,100,29.95,-9999.0,West,3.5,-,N/A,,Clear,270,2013-08-24 22:55:00
1:55 AM,71.6,71.6,100,29.92,-9999.0,West,4.6,-,N/A,,Clear,280,2013-08-24 23:55:00
2:00 AM,72,72,98,29.94,6,West,4.6,,,,,280,2013-08-25 00:00:00
2:55 AM,69.8,69.8,100,29.92,-9999.0,WNW,3.5,-,N/A,,Clear,300,2013-08-25 00:55:00
3:55 AM,68.0,68.0,100,29.92,-9999.0,NW,4.6,-,N/A,,Clear,310,2013-08-25 01:55:00
4:55 AM,68.0,68.0,100,29.92,-9999.0,NW,5.8,-,N/A,,Clear,310,2013-08-25 02:55:00
5:00 AM,68,68,100,29.94,6,NW,5.8,,,,,310,2013-08-25 03:00:00
5:55 AM,64.4,64.4,100,29.92,-9999.0,West,3.5,-,N/A,,Clear,260,2013-08-25 03:55:00
6:55 AM,66.2,64.4,94,29.92,-9999.0,WNW,8.1,-,N/A,,Clear,290,2013-08-25 04:55:00
7:55 AM,69.8,68.0,94,29.92,-9999.0,West,3.5,-,N/A,,Clear,280,2013-08-25 05:55:00
8:00 AM,70,69,94,29.92,6,West,3.5,,,,,280,2013-08-25 06:00:00
8:55 AM,77.0,69.8,78,29.92,-9999.0,West,16.1,-,N/A,,Clear,270,2013-08-25 06:55:00
9:55 AM,78.8,68.0,69,29.92,-9999.0,West,16.1,-,N/A,,Clear,260,2013-08-25 07:55:00
10:55 AM,84.2,64.4,51,29.89,-9999.0,West,11.5,-,N/A,,Clear,260,2013-08-25 08:55:00
11:00 AM,84,64,41,29.91,6,West,11.5,,,,,260,2013-08-25 09:00:00
11:55 AM,86.0,62.6,45,29.89,-9999.0,NNE,13.8,-,N/A,,Clear,30,2013-08-25 09:55:00
12:55 PM,89.6,60.8,38,29.89,-9999.0,WSW,13.8,-,N/A,,Clear,250,2013-08-25 10:55:00
1:55 PM,91.4,62.6,38,29.86,-9999.0,West,13.8,-,N/A,,Clear,280,2013-08-25 11:55:00
2:00 PM,92,63,28,29.88,6,West,13.8,,,,,280,2013-08-25 12:00:00
2:55 PM,93.2,64.4,38,29.86,6.2,WSW,15.0,-,N/A,,Partly Cloudy,240,2013-08-25 12:55:00
3:55 PM,93.2,66.2,41,29.83,6.2,West,18.4,-,N/A,,Partly Cloudy,260,2013-08-25 13:55:00
4:55 PM,87.8,60.8,40,29.86,6.2,WSW,13.8,-,N/A,,Scattered Clouds,250,2013-08-25 14:55:00
5:00 PM,87,61,31,29.85,6,WSW,13.8,,,,Partly Cloudy,250,2013-08-25 15:00:00
5:55 PM,87.8,60.8,40,29.86,6.2,WSW,13.8,-,N/A,,Partly Cloudy,250,2013-08-25 15:55:00
6:55 PM,86.0,60.8,43,29.86,6.2,WSW,10.4,-,N/A,,Partly Cloudy,240,2013-08-25 16:55:00
7:55 PM,84.2,59.0,42,29.83,6.2,WSW,9.2,-,N/A,,Partly Cloudy,250,2013-08-25 17:55:00
8:00 PM,85,60,32,29.85,6,WSW,9.2,,,,Scattered Clouds,250,2013-08-25 18:00:00
9:55 PM,77.0,66.2,69,29.89,6.2,NW,3.5,-,N/A,,Partly Cloudy,310,2013-08-25 19:55:00
10:55 PM,77.0,73.4,89,29.89,6.2,West,12.7,-,N/A,,Partly Cloudy,280,2013-08-25 20:55:00
11:00 PM,77,74,87,29.91,6,West,12.7,,,,Scattered Clouds,280,2013-08-25 21:00:00
11:55 PM,77.0,77.0,100,29.89,6.2,WNW,13.8,-,N/A,,Partly Cloudy,290,2013-08-25 21:55:00